Morgantown, WV

4:42 PM EDT on June 26, 2017 (GMT -0400)
Morgantown Municipal-Hart

Weather History for KMGW - December, 1998

Change the Weather History Date:

Monday, December 7, 1998

  Actual Average Record
Temperature  
Mean Temperature 58 °F 37 °F  
Max Temperature 68 °F 45 °F 76 °F (1951)
Min Temperature 48 °F 29 °F 5 °F (1977)
Degree Days  
Heating Degree Days 7 28  
Month to date heating degree days 189  
Since 1 July heating degree days 1237  
Cooling Degree Days 0 0  
Month to date cooling degree days 0  
Year to date cooling degree days 814  
Growing Degree Days 8 (Base 50)    
Moisture  
Dew Point 52 °F    
Average Humidity 82    
Maximum Humidity 94    
Minimum Humidity 60    
Precipitation  
Precipitation 0.00 in 0.10 in 1.11 in (2011)
Month to date precipitation 0.72  
Year to date precipitation 39.64  
Sea Level Pressure  
Sea Level Pressure 29.98 in    
Wind  
Wind Speed 10 mph (West)    
Max Wind Speed 17 mph    
Max Gust Speed 25 mph    
Visibility 11 miles    
Events Rain    
T = Trace of Precipitation, MM = Missing Value Source: NWS Daily Summary

Daily Weather History Graph

Daily Weather History Graph

Search for Another Location

Airport or City:

Trip Planner

Search our weather history database for the weather conditions in past years. The results will help you decide how hot, cold, wet, or windy it might be!

Date:

Astronomy

Dec. 07, 1998 Rise Set
Actual Time 7:26 AM EST 4:55 PM EST
Civil Twilight 6:56 AM EST 5:25 PM EST
Nautical Twilight 6:23 AM EST 5:59 PM EST
Astronomical Twilight 5:50 AM EST 6:31 PM EST
Moon 9:28 PM EST (12/7) 10:55 AM EST (12/7)
Length of Visible Light 10h 28m
Length of Day
9h 28m
Waning Gibbous, 79% of the Moon is Illuminated
Dec 7
Waning Gibbous
Dec 10
Last Quarter
Dec 18
New
Dec 26
First Quarter
Jan 1
Full

Hourly Weather History & Observations

Time (EST) Temp. Dew Point Humidity Pressure Visibility Wind Dir Wind Speed Gust Speed Precip Events Conditions
12:45 AM 66.2 °F 53.6 °F 64% 29.82 in 15.0 mi SSW 11.5 mph 17.3 mph N/A   Clear
1:45 AM 66.2 °F 53.6 °F 64% 29.81 in 15.0 mi SSW 11.5 mph 20.7 mph N/A   Clear
2:45 AM 66.2 °F 53.6 °F 64% 29.83 in 15.0 mi SSW 16.1 mph 25.3 mph N/A   Partly Cloudy
3:45 AM 66.2 °F 53.6 °F 64% 29.82 in 15.0 mi SSW 17.3 mph 25.3 mph N/A   Mostly Cloudy
4:45 AM 68.0 °F 53.6 °F 60% 29.83 in 15.0 mi SW 13.8 mph 23.0 mph N/A   Scattered Clouds
5:45 AM 66.2 °F 55.4 °F 68% 29.85 in 10.0 mi SW 16.1 mph 25.3 mph N/A Rain Light Rain
6:45 AM 64.4 °F 55.4 °F 73% 29.90 in 9.0 mi WNW 11.5 mph 17.3 mph N/A Rain Light Rain
7:45 AM 62.6 °F 59.0 °F 88% 29.94 in 15.0 mi SSW 11.5 mph 17.3 mph N/A Rain Light Rain
8:45 AM 62.6 °F 60.8 °F 94% 29.95 in 15.0 mi SSW 9.2 mph - N/A Rain Light Rain
9:45 AM 62.6 °F 59.0 °F 88% 29.99 in 10.0 mi SW 11.5 mph - N/A Rain Light Rain
10:45 AM 60.8 °F 57.2 °F 88% 30.00 in 10.0 mi WSW 5.8 mph - N/A Rain Light Rain
11:45 AM 60.8 °F 59.0 °F 94% 29.99 in 15.0 mi SSW 8.1 mph - N/A Rain Light Rain
12:31 PM 60.8 °F 59.0 °F 94% 29.99 in 10.0 mi SSW 6.9 mph - N/A Rain Light Rain
12:45 PM 60.8 °F 57.2 °F 88% 29.99 in 10.0 mi SSW 5.8 mph - N/A   Overcast
1:45 PM 55.4 °F 51.8 °F 88% 30.02 in 8.0 mi North 6.9 mph - N/A Rain Light Rain
2:45 PM 53.6 °F 50.0 °F 88% 30.00 in 10.0 mi Variable 5.8 mph - N/A Rain Light Rain
3:05 PM 53.6 °F 50.0 °F 88% 30.02 in - North 5.8 mph - N/A   Overcast
3:29 PM 55.4 °F 50.0 °F 82% 30.01 in 15.0 mi Variable 4.6 mph - N/A   Overcast
3:45 PM 53.6 °F 50.0 °F 88% 30.00 in 10.0 mi Variable 4.6 mph - N/A   Overcast
4:03 PM 53.6 °F 50.0 °F 88% 30.04 in 10.0 mi North 11.5 mph 23.0 mph N/A   Overcast
4:08 PM 53.6 °F 48.2 °F 82% 30.04 in 7.0 mi North 11.5 mph 17.3 mph N/A   Overcast
4:45 PM 51.8 °F 46.4 °F 82% 30.08 in 7.0 mi North 8.1 mph 17.3 mph N/A   Overcast
5:45 PM 50.0 °F 48.2 °F 94% 30.06 in 6.0 mi North 9.2 mph - N/A Rain Light Rain
6:36 PM 50.0 °F 46.4 °F 87% 30.05 in 5.0 mi North 10.4 mph - N/A Rain Light Rain
7:45 PM 48.2 °F 44.6 °F 87% 30.06 in 8.0 mi North 9.2 mph - N/A   Overcast
8:45 PM 50.0 °F 44.6 °F 82% 30.09 in 10.0 mi ESE 4.6 mph - N/A   Overcast
9:45 PM 48.2 °F 44.6 °F 87% 30.09 in 10.0 mi North 5.8 mph - N/A   Overcast
10:45 PM 48.2 °F 42.8 °F 82% 30.09 in 10.0 mi Variable 4.6 mph - N/A   Overcast
11:50 PM 48.2 °F 46.4 °F 93% 30.08 in 8.0 mi NNE 4.6 mph - N/A   Overcast